Regional Weather Roundup
Issued by NWS Grand Forks, ND

Home | Current Version | Previous Version | Graphics & Text | Print | Product List | Glossary On
Versions: 1 2 3 4 5 6 7 8 9 10 11 12 13 14 15 16 17 18 19 20 21 22 23 24 25 26 27 28 29 30 31 32 33 34 35 36 37 38 39 40 41 42 43 44 45 46 47 48 49 50
000
ASUS43 KFGF 210331
RWRFGF
PRAIRIE TO PINES  WEATHER ROUNDUP
NATIONAL WEATHER SERVICE EASTERN NORTH DAKOTA/GRAND FORKS ND
1000 PM CDT MON OCT 20 2014

 **SATELLITE DATA USED TO AUGMENT SKY COVER AT AUTOMATED STATIONS**
 *****  WEATHER ACROSS EASTERN NORTH DAKOTA  *****

CITY           SKY/WX    TMP DP  RH WIND       PRES   REMARKS
GRAND FORKS    CLEAR     45  38  76 SE7       30.03S
GRAND FRKS AFB CLEAR     44  40  86 SE6       30.04R
GRAND FRKS NWS   N/A     45 N/A N/A SE9         N/A
DEVILS LAKE    CLEAR     50  39  66 SE12      29.98R
FARGO          CLEAR     45  35  68 E6        30.03S
WAHPETON ARPT  CLEAR     45  34  65 E5        30.05R
$$

 ***** WEATHER ACROSS CENTRAL AND WESTERN NORTH DAKOTA  *****

CITY           SKY/WX    TMP DP  RH WIND       PRES   REMARKS
BISMARCK       CLEAR     49  34  56 E8        29.95R
MINOT          CLEAR     50  34  54 SE8       29.89S
JAMESTOWN      CLEAR     51  40  65 SE10      30.00R
MINOT AFB      CLEAR     48  37  65 S9        29.88F
GARRISON         N/A     51  38  60 SE7       29.90F
WILLISTON      CLEAR     59  42  53 SW3       29.82R
DICKINSON      CLEAR     54  41  61 SE12      29.87S
HETTINGER      CLEAR     54  39  57 E8        29.90F
$$

 *****  OTHER AIRPORT OBSERVATIONS IN OUR AREA  *****

CITY           SKY/WX    TMP DP  RH WIND       PRES   REMARKS
WALHALLA       FAIR      41  41 100 SE8       30.02S
GRAFTON AIRPOR FAIR      41  37  87 SE8       30.03F
VALLEY CITY AR CLOUDY    50  41  71 SE10      30.03S
CANDO          FAIR      45  39  81 SE8       29.98S
CAVALIER APRT  FAIR      45  37  76 SE6       30.03S
GWINNER        CLEAR     45  37  76 SE5       30.05R
ROLLA          FAIR      46  39  76 S12       29.97S
 ***** THE ABOVE OBSERVATIONS ARE NON NWS ARE NOT QUALITY
       CONTROLLED AND MAY MIS-REPORT RAIN FOR SNOW...
$$

  *****  WEATHER ACROSS NORTHERN MINNESOTA  *****

CITY           SKY/WX    TMP DP  RH WIND       PRES   REMARKS
FLAG ISLAND    CLEAR     45  37  76 E7        30.09S
WARROAD        CLEAR     43  37  81 E10       30.10S
ROSEAU         CLEAR     41  36  81 E9        30.08S
HALLOCK        CLEAR     46  37  71 SE10      30.05R
THF RVR FALLS  CLEAR     39  36  87 E8        30.07S
BAUDETTE       CLEAR     36  33  89 E6        30.11R
WASKISH        CLEAR     32  30  93 CALM      30.11R
CROOKSTON      CLEAR     45  37  76 SE10      30.06S
STEPHEN NDAWN    N/A     39  36  87 SE5         N/A
GREENBUSH NDAW   N/A     41  37  87 E7          N/A
$$
  *****  WEATHER ACROSS CENTRAL AND WEST MINNESOTA  *****

CITY           SKY/WX    TMP DP  RH WIND       PRES   REMARKS
FOSSTON        CLEAR     36  27  69 E3        30.08R
BEMIDJI        CLEAR     33  33  97 E3        30.09S
PARK RAPIDS    CLEAR     43  39  86 E5        30.08R
ELBOW LAKE     FAIR      51  38  61 E7        30.05R
WADENA         CLEAR     43  36  75 E6        30.07S
DETROIT LAKES  FAIR      46  36  66 CALM      30.07R
MOORHEAD       CLEAR     48  39  71 E7        30.05S
FERGUS FALLS   CLEAR     45  36  70 E3        30.06S
MORRIS MN      CLEAR     46  37  71 CALM      30.05R
STAPLES        CLEAR     43  37  81 CALM      30.09R
$$
  *****  WEATHER ELSEWHERE ACROSS MINNESOTA  *****

CITY           SKY/WX    TMP DP  RH WIND       PRES   REMARKS
DULUTH         CLOUDY    46  35  65 NE6       30.10R
INTRNTL FALLS  CLOUDY    44  36  73 E6        30.12R
ELY            CLOUDY    41  34  75 NE6       30.12R
CLOQUET        CLOUDY    46  36  66 NE3       30.10S
WHEATON        CLEAR     41  34  75 SE5       30.07R
BRAINERD       CLEAR     41  38  89 NE3       30.09R
HIBBING        CLOUDY    46  35  65 NE5       30.10S
ALEXANDRIA     CLEAR     45  37  73 NE3       30.07R
SAINT CLOUD    CLEAR     49  38  65 E5        30.08R
MINNEAPOLIS    CLEAR     50  40  68 NE6       30.07R
$$

  *****  WEATHER ACROSS SOUTH DAKOTA  *****

CITY           SKY/WX    TMP DP  RH WIND       PRES   REMARKS
SIOUX FALLS    CLEAR     49  39  68 CALM      30.05R
BROOKINGS      NOT AVBL
WATERTOWN      CLEAR     47  37  68 CALM      30.05R
HURON          CLEAR     51  34  52 SE8       30.02S
SISSETON         N/A     39  36  89 W5        30.05R
ABERDEEN       CLEAR     48  35  60 E8        30.02R
MITCHELL       CLEAR     49  36  61 SE7       30.03S
PIERRE         CLEAR     60  38  43 SE16      29.93S
MOBRIDGE       CLEAR     58  35  42 SE13      29.92S
RAPID CITY     CLEAR     57  43  59 SE6       29.90F
$$

  *****  SOME WEATHER IN NEARBY STATES *****

CITY           SKY/WX    TMP DP  RH WIND       PRES   REMARKS
GLASGOW MT     CLEAR     52  38  58 E13       29.75S
GREAT FALLS MT CLEAR     59  33  37 S10       29.72F
CHEYENNE WY    PTCLDY    53  35  50 S6        30.10S
SCOTTSBLUFF NE CLEAR     52  38  58 E8        30.01R
OMAHA NE       CLEAR     52  43  71 CALM      30.07R
DES MOINES IA  CLEAR     56  40  55 CALM      30.04R
DAVENPORT IA   CLEAR     50  40  68 N6        30.01R
CHICAGO IL     MOCLDY    53  41  63 N8        29.99R
EAU CLAIRE WI  PTCLDY    46  38  73 N5        30.06R
LA CROSSE WI   CLEAR     47  41  80 NW6       30.05R
$$

  *****  SOME NATIONAL WEATHER *****

CITY           SKY/WX    TMP DP  RH WIND       PRES   REMARKS
LA GUARDIA NY  MOCLDY    57  45  64 S7        29.97F
RALEIGH NC     MOCLDY    52  48  86 CALM      29.99S
ATLANTA GA     PTCLDY    62  51  67 NW5       30.02R
NEW ORLEANS LA PTCLDY    66  55  67 N3        30.02R
OKLAHOMA CITY  PTCLDY    67  61  81 SE5       30.05R
ALBUQUERQUE NM LGT RAIN  57  47  69 E14       30.18R
SALT LAKE CITY PTCLDY    63  38  39 SE8       29.90F
LOS ANGELES CA PTCLDY    67  62  84 W10       29.89R
BOISE ID       MOCLDY    63  40  42 S3        29.70F
SEATTLE WA     PTCLDY    57  50  77 S8        29.78R
$$

*** WEATHER ACROSS MANITOBA...SASKATCHEWAN AND ONTARIO ***
                ***ONTARIO***

CITY           SKY/WX    TMP DP  RH WIND       PRES   REMARKS
GERALDTON      CLEAR     30  30 100 N3        30.15R
THUNDER BAY    MOCLDY    39  36  87 N3        30.15R
SIOUX LOOKOUT  CLOUDY    37  34  87 E3        30.15S
TORONTO        CLOUDY    52  48  87 W6        29.79F
BIG TROUT LK   CLOUDY    34  32  93 SW5       30.18R
PICKLE LAKE    NOT AVBL
DRYDEN         CLOUDY    39  34  81 E7        30.14R
KENORA         CLEAR     37  34  87 SE6       30.11S
$$
                *** MANITOBA***

CITY           SKY/WX    TMP DP  RH WIND       PRES   REMARKS
BRANDON        CLEAR     39  37  93 E9        29.94S
DAUPHIN        CLEAR     41  39  93 VRB2      29.88S
ISLAND LAKE    CLOUDY    37  34  87 SE15      30.08F
PILOT MOUND    NOT AVBL
THE PAS        CLEAR     43  41  93 SE16G25   29.78F
THOMPSON       CLOUDY    37  36  93 S12       29.93F
WINNIPEG       CLEAR     45  37  76 SE10      30.04S
LYNN LAKE      CLOUDY    37  36  93 S18G30    29.73F
CHURCHILL      CLOUDY    34  32  93 S14G21    30.00F FOG     WCI  24
GILLAM         CLOUDY    36  32  87 S9G20     30.02F
$$
                ***SASKATCHEWAN***

CITY           SKY/WX    TMP DP  RH WIND       PRES   REMARKS
ESTEVAN        CLEAR     50  41  71 SE9       29.81S
KINDERSLEY     CLEAR     52  34  50 S7        29.62S
LLOYDMINSTER   CLEAR     54  34  47 S10       29.54F
PRINCE ALBERT  CLEAR     46  43  87 NE2       29.62F
REGINA         CLEAR     52  41  66 SE14      29.75F
YORKTON        CLEAR     55  41  58 S13       29.79S
N. BATTLEFORD  CLEAR     50  36  57 SE10      29.60F
LA RONGE       PTCLDY    50  43  76 SE10      29.60S
SASKATOON      CLEAR     57  41  54 S12       29.64
SWIFT CURRENT  CLEAR     55  43  62 S16       29.69F
$$
NOTE: THESE ARE AUTOMATED STATIONS WITH LIMITED QUALITY CONTROL
      "FAIR" INDICATES FEW OR NO CLOUDS BELOW 12,000 FEET WITH NO
      SIGNIFICANT WEATHER AND/OR OBSTRUCTIONS TO VISIBILITY.
      SKY/WX - SKY CONDITION AND SIGNIFICANT WEATHER.
      TMP - AIR TEMPERATURE.    DP   - DEWPOINT TEMPERATURE.
      RH  - RELATIVE HUMIDITY.  PRES - PRESSURE.
      HX  - HEAT INDEX.         WCI  - WIND CHILL INDEX.
$



USA.gov is the U.S. government's official web portal to all federal, state and local government web resources and services.